Hourly Data Report for October 24, 2016

All times are specified in Local Standard Time (LST). Add 1 hour to adjust for Daylight Saving Time where and when it is observed.

EUREKA CLIMATE
NUNAVUT

79°59'21.000" N
85°56'02.000" W
10.00 m
2401199
71613
NEK

Download Data

Hourly Data (October 2016)
Hourly Data Report for October 24, 2016
Temp Definition
°C
Dew Point Temp Definition
°C
Rel Hum Definition
%
Wind Dir Definition
10's deg

Wind Spd Definition
km/h
Visibility Definition
km
Stn Press Definition
kPa
Hmdx Definition


Wind Chill Definition


Weather Definition


TIME
00:00 -8.4 -10.6 84 19 26   102.24   -17 LegendNANA
01:00 -8.6 -10.9 83 9 16   102.24   -15 LegendNANA
02:00 -8.7 -11.3 81 16 23   102.17   -17 LegendNANA
03:00 -8.8 -11.1 83 14 29   102.14   -18 LegendNANA
04:00 -8.7 -11.2 82 15 24   102.12   -17 LegendNANA
05:00 -8.8 -11.1 83 11 11   102.09   -14 LegendNANA
06:00 -8.7 -11.3 82 13 14   102.04   -15 LegendNANA
07:00 -8.7 -11.4 81 15 21   102.00   -16 LegendNANA
08:00 -8.9 -11.7 80 16 34   101.90   -19 LegendNANA
09:00 -10.5 -12.7 84 12 13   101.93   -17 LegendNANA
10:00 -10.1 -12.5 83 16 17   101.89   -17 LegendNANA
11:00 -10.5 -12.3 86 15 19   101.89   -18 LegendNANA
12:00 -10.0 -11.7 87 18 14   101.87   -16 LegendNANA
13:00 -10.5 -12.1 88 23 2   101.84   -12 LegendNANA
14:00 -10.9 -15.4 69 27 17   101.85   -18 LegendNANA
15:00 -11.4 -16.0 69 31 10   101.83   -17 LegendNANA
16:00 -12.6 -16.0 76 29 15   101.81   -20 LegendNANA
17:00 -13.4 -15.8 82 28 6   101.80   -17 LegendNANA
18:00 -13.4 -15.2 86 28 13   101.80   -20 LegendNANA
19:00 -13.6 -15.2 87 28 13   101.75   -21 LegendNANA
20:00 -13.0 -15.1 85 33 5   101.73   -16 LegendNANA
21:00 -13.3 -15.6 83 29 21   101.70   -22 LegendNANA
22:00 -12.6 -15.1 81 26 9   101.69   -18 LegendNANA
23:00 -12.6 -16.0 76 15 12   101.64   -19 LegendNANA

Notes on Data Quality.

Legend

  • E = Estimated
  • M = Missing
  • NA = Not Available
  • ‡ = Partner data that is not subject to review by the National Climate Archives
Date modified: